Regional Weather Roundup
Issued by NWS Green Bay, WI

Home | Current Version | Previous Version | Graphics & Text | Print | Product List | Glossary Off
Versions: 1 2 3 4 5 6 7 8 9 10 11 12 13 14 15 16 17 18 19 20 21 22 23 24 25 26 27 28 29 30 31 32 33 34 35 36 37 38 39 40 41 42 43 44 45 46 47 48 49 50

000
ASUS43 KGRB 260111
RWRGRB

NORTH-CENTRAL AND NORTHEAST WISCONSIN REGIONAL WEATHER ROUNDUP
NATIONAL WEATHER SERVICE GREEN BAY WI
800 PM CDT MON SEP 25 2017

WIZ005-009-010>012-018-019-260200-
NORTH CENTRAL WISCONSIN

CITY           SKY/WX    TMP DP  RH WIND       PRES   REMARKS
IRONWOOD       CLOUDY    57  56  96 NW3       30.01S
MANITOWISH WTR NOT AVBL
ARBOR VITAE    RAIN      64  63  94 CALM      29.98F
EAGLE RIVER    RAIN      64  62  93 W16G25    30.02R
LAND O LAKES   CLOUDY    62  61  96 N5        30.02R
RHINELANDER    LGT RAIN  66  65  96 NE5       29.98R
PHILLIPS       CLOUDY    63  63 100 N5        29.99R
ANTIGO         CLOUDY    68  64  86 SE7       29.95R
TOMAHAWK       PTCLDY    64  62  93 CALM      29.95S
MERRILL        CLOUDY    71  65  79 NW3       29.94F
$$

WIZ013-073-260200-
NORTHEAST WISCONSIN

CITY           SKY/WX    TMP DP  RH WIND       PRES   REMARKS
IRON MOUNTAIN  CLEAR     74  63  68 E5        29.92R
MARINETTE      CLEAR     71  63  75 SW3       29.93R
OCONTO         CLEAR     73  63  69 S5        29.92R
$$

WIZ017-030-035>037-045-260200-
CENTRAL WISCONSIN

CITY           SKY/WX    TMP DP  RH WIND       PRES   REMARKS
MEDFORD        MOCLDY    67  64  89 CALM      29.96R
WAUSAU         LGT RAIN  71  65  81 NW6       29.94R
MOSINEE        CLOUDY    72  63  73 W6        29.95R
MARSHFIELD     CLOUDY    69  62  78 W6        29.94R
WISC RAPIDS    MOCLDY    69  64  84 CALM      29.96R
STEVENS POINT  CLOUDY    71  62  74 SW7       29.96R
WAUPACA        CLOUDY    74  67  78 CALM      29.93S
SHAWANO        CLEAR     78  64  63 S7        29.91R
CLINTONVILLE   PTCLDY    75  63  64 S7        29.92R
WAUTOMA        CLOUDY    74  63  68 CALM      29.93R
$$

WIZ038-039-048-051-260200-
FOX VALLEY

CITY           SKY/WX    TMP DP  RH WIND       PRES   REMARKS
NWS GREEN BAY  CLEAR     75  64  68 S6        29.92R
APPLETON       PTCLDY    75  57  53 SE8       29.92R
OSHKOSH        CLEAR     72  62  71 S7        29.92R
FOND DU LAC    CLEAR     73  59  61 S7        29.93R
$$

WIZ022-050-052-260200-
EAST CENTRAL WISCONSIN

CITY           SKY/WX    TMP DP  RH WIND       PRES   REMARKS
EPHRAIM        FAIR      71  61  70 S7        29.93R
WASHINGTON ISL FAIR      70  63  76 S6        29.92S
STURGEON BAY   CLEAR     72  62  71 S10       29.93S
MANITOWOC      CLEAR     70  64  81 S5        29.94R
SHEBOYGAN      CLEAR     70  66  87 S6        29.94R
$$

LMZ563-521-522-541>543-260200-
LAKESHORE

STATION/POSITION TIME  TEMP    WIND        PRES    VSBY  WAVE
                       AIR SEA DIR/SP/G                  HT/PER
                 (UTC) (F)     (DEG/KT/KT) (MB)    (MI)  (FT/S)
SHEBOYGAN LKSHOR 0100   72     200/  9/ 10 1013.3R
KEWAUNEE LKSHORE 0042   66     170/  2/  3 1012.8R
NORTHPORT PIER   0040   73     170/  5/  9 1012.9S
N MID LAKE BUOY  0050   69 68  140/  4/  6 1014.0R         1
SISTER BAY LKSHO 0104   74     180/ 10/ 13   N/A
MENOMINEE LKSHOR 0042   73     190/  6/  7 1012.8R
$$




USA.gov is the U.S. government's official web portal to all federal, state and local government web resources and services.